TimeCST,TemperatureF,Dew PointF,Humidity,Sea Level PressureIn,VisibilityMPH,Wind Direction,Wind SpeedMPH,Gust SpeedMPH,PrecipitationIn,Events,Conditions,WindDirDegrees,DateUTC
12:15 AM,-9999,-9999,N/A,29.77,1.0,South,3.5,-,N/A,,Overcast,180,2012-12-17 06:15:00
12:35 AM,15.8,12.2,86,29.77,1.5,South,3.5,-,N/A,,Overcast,180,2012-12-17 06:35:00
12:55 AM,-9999,-9999,N/A,29.76,1.5,Calm,Calm,-,N/A,,Overcast,0,2012-12-17 06:55:00
1:15 AM,-9999,-9999,N/A,29.75,1.2,Calm,Calm,-,N/A,,Overcast,0,2012-12-17 07:15:00
1:35 AM,-9999,-9999,N/A,29.74,1.0,South,3.5,-,N/A,,Overcast,190,2012-12-17 07:35:00
1:55 AM,-9999,-9999,N/A,29.74,1.0,Calm,Calm,-,N/A,,Overcast,0,2012-12-17 07:55:00
2:15 AM,-9999,-9999,N/A,29.73,1.5,Calm,Calm,-,N/A,,Overcast,0,2012-12-17 08:15:00
2:35 AM,-9999,-9999,N/A,29.73,1.5,SW,3.5,-,N/A,,Overcast,220,2012-12-17 08:35:00
2:55 AM,-9999,-9999,N/A,29.72,1.2,Calm,Calm,-,N/A,,Overcast,0,2012-12-17 08:55:00
3:15 AM,-9999,-9999,N/A,29.72,2.0,SSW,3.5,-,N/A,,Overcast,210,2012-12-17 09:15:00
3:35 AM,-9999,-9999,N/A,29.72,2.5,Calm,Calm,-,N/A,,Overcast,0,2012-12-17 09:35:00
3:55 AM,-9999,-9999,N/A,29.71,1.8,Calm,Calm,-,N/A,,Overcast,0,2012-12-17 09:55:00
4:15 AM,-9999,-9999,N/A,29.71,3.0,SW,4.6,-,N/A,,Overcast,220,2012-12-17 10:15:00
4:35 AM,-9999,-9999,N/A,29.70,3.0,SSE,3.5,-,N/A,,Overcast,160,2012-12-17 10:35:00
4:55 AM,-9999,-9999,N/A,29.70,3.0,South,4.6,-,N/A,,Overcast,190,2012-12-17 10:55:00
5:15 AM,-9999,-9999,N/A,29.69,4.0,South,4.6,-,N/A,,Overcast,170,2012-12-17 11:15:00
5:35 AM,15.8,12.2,86,29.70,5.0,South,3.5,-,N/A,,Overcast,170,2012-12-17 11:35:00
5:55 AM,15.8,12.2,86,29.69,4.0,South,3.5,-,N/A,,Overcast,180,2012-12-17 11:55:00
6:15 AM,-9999,-9999,N/A,29.68,5.0,South,3.5,-,N/A,,Overcast,180,2012-12-17 12:15:00
6:35 AM,15.8,12.2,86,29.69,8.0,South,3.5,-,N/A,,Overcast,190,2012-12-17 12:35:00
6:55 AM,-9999,-9999,N/A,29.67,9.0,South,3.5,-,N/A,,Overcast,180,2012-12-17 12:55:00
7:15 AM,-9999,-9999,N/A,29.67,7.0,South,3.5,-,N/A,,Overcast,190,2012-12-17 13:15:00
7:35 AM,15.8,12.2,86,29.68,9.0,South,4.6,-,N/A,,Overcast,190,2012-12-17 13:35:00
7:55 AM,-9999,-9999,N/A,29.66,10.0,South,3.5,-,N/A,,Overcast,170,2012-12-17 13:55:00
8:15 AM,-9999,-9999,N/A,29.66,6.0,Calm,Calm,-,N/A,,Overcast,0,2012-12-17 14:15:00
8:35 AM,17.6,14.0,86,29.67,5.0,South,3.5,-,N/A,,Overcast,180,2012-12-17 14:35:00
8:55 AM,-9999,-9999,N/A,29.66,7.0,South,3.5,-,N/A,,Overcast,170,2012-12-17 14:55:00
9:15 AM,-9999,-9999,N/A,29.66,9.0,SSE,3.5,-,N/A,,Overcast,150,2012-12-17 15:15:00
9:35 AM,-9999,-9999,N/A,29.66,10.0,SSE,3.5,-,N/A,,Overcast,160,2012-12-17 15:35:00
9:55 AM,-9999,-9999,N/A,29.65,9.0,SE,4.6,-,N/A,,Overcast,140,2012-12-17 15:55:00
10:15 AM,-9999,-9999,N/A,29.65,3.0,SE,4.6,-,N/A,,Overcast,140,2012-12-17 16:15:00
10:35 AM,-9999,-9999,N/A,29.65,5.0,SE,4.6,-,N/A,,Overcast,140,2012-12-17 16:35:00
10:55 AM,-9999,-9999,N/A,29.65,7.0,SSE,5.8,-,N/A,,Overcast,150,2012-12-17 16:55:00
11:15 AM,-9999,-9999,N/A,29.64,10.0,SE,5.8,-,N/A,,Mostly Cloudy,140,2012-12-17 17:15:00
11:35 AM,19.4,15.8,86,29.64,10.0,SSE,5.8,-,0.01,,Overcast,150,2012-12-17 17:35:00
11:55 AM,19.4,15.8,86,29.62,10.0,SSE,5.8,-,0.01,,Overcast,150,2012-12-17 17:55:00
12:15 PM,19.4,15.8,86,29.62,10.0,SSE,5.8,-,N/A,,Overcast,150,2012-12-17 18:15:00
12:35 PM,19.4,17.6,93,29.61,10.0,SSE,5.8,-,N/A,,Overcast,150,2012-12-17 18:35:00
12:55 PM,19.4,17.6,93,29.60,10.0,SSE,5.8,-,N/A,,Overcast,150,2012-12-17 18:55:00
1:15 PM,19.4,17.6,93,29.59,10.0,SSE,5.8,-,N/A,,Overcast,150,2012-12-17 19:15:00
1:35 PM,19.4,17.6,93,29.59,10.0,SSE,5.8,-,N/A,,Overcast,150,2012-12-17 19:35:00
1:55 PM,21.2,17.6,86,29.58,10.0,SSE,5.8,-,N/A,,Overcast,160,2012-12-17 19:55:00
2:15 PM,21.2,17.6,86,29.58,10.0,SSE,4.6,-,N/A,,Overcast,160,2012-12-17 20:15:00
2:35 PM,21.2,17.6,86,29.58,10.0,South,5.8,-,N/A,,Overcast,170,2012-12-17 20:35:00
2:55 PM,21.2,17.6,86,29.58,10.0,South,4.6,-,N/A,,Overcast,170,2012-12-17 20:55:00
3:15 PM,21.2,17.6,86,29.59,10.0,South,4.6,-,N/A,,Overcast,170,2012-12-17 21:15:00
3:35 PM,21.2,17.6,86,29.59,10.0,SSE,4.6,-,N/A,,Overcast,160,2012-12-17 21:35:00
3:55 PM,21.2,17.6,86,29.59,10.0,South,4.6,-,N/A,,Overcast,170,2012-12-17 21:55:00
6:35 PM,21.2,17.6,86,29.58,10.0,SSE,6.9,-,N/A,,Overcast,150,2012-12-18 00:35:00
6:55 PM,21.2,17.6,86,29.58,10.0,SSE,8.1,-,N/A,,Overcast,160,2012-12-18 00:55:00
7:15 PM,19.4,17.6,93,29.57,10.0,SSE,8.1,-,N/A,,Overcast,160,2012-12-18 01:15:00
7:35 PM,19.4,17.6,93,29.57,10.0,SSE,6.9,-,N/A,,Overcast,160,2012-12-18 01:35:00
7:55 PM,19.4,17.6,93,29.57,10.0,South,8.1,-,N/A,,Overcast,170,2012-12-18 01:55:00
8:15 PM,19.4,17.6,93,29.57,10.0,South,8.1,-,N/A,,Overcast,170,2012-12-18 02:15:00
8:35 PM,19.4,17.6,93,29.57,9.0,SSE,8.1,-,N/A,,Overcast,160,2012-12-18 02:35:00
8:55 PM,19.4,17.6,93,29.57,9.0,SSE,6.9,-,N/A,,Overcast,160,2012-12-18 02:55:00
9:15 PM,19.4,17.6,93,29.57,7.0,South,8.1,-,N/A,,Overcast,170,2012-12-18 03:15:00
9:35 PM,19.4,15.8,86,29.57,5.0,South,8.1,-,N/A,,Overcast,190,2012-12-18 03:35:00
9:55 PM,19.4,17.6,93,29.57,6.0,SSW,8.1,-,N/A,,Overcast,200,2012-12-18 03:55:00
10:15 PM,19.4,17.6,93,29.57,7.0,South,5.8,-,N/A,,Overcast,190,2012-12-18 04:15:00
10:35 PM,19.4,17.6,93,29.57,7.0,South,5.8,-,N/A,,Overcast,180,2012-12-18 04:35:00
10:55 PM,19.4,17.6,93,29.56,6.0,South,5.8,-,N/A,,Overcast,190,2012-12-18 04:55:00
11:15 PM,19.4,17.6,93,29.57,7.0,South,4.6,-,N/A,,Overcast,180,2012-12-18 05:15:00
11:35 PM,19.4,17.6,93,29.57,7.0,South,4.6,-,N/A,,Overcast,190,2012-12-18 05:35:00
11:55 PM,19.4,17.6,93,29.56,8.0,SSE,4.6,-,N/A,,Overcast,150,2012-12-18 05:55:00